User: anonymous   Login
Location: Hylvaty SDH
(49.9612°N, 16.4057°E)
Time: 17:38:20
(UTC+02:00)
Language:

N. Korean satellite - Orbit

View from above orbital plane
View from above orbital plane
View from above satellite
View from above satellite

Ground track
Ground track

The orbit data is extracted from the following two-line orbital elements,

1 39026U 12072A   20221.02713757  .00001656  00000-0  60657-4 0  9997
2 39026  97.2246 216.3032 0038900  61.9038 298.6126 15.28720394425181
Epoch (UTC): 08 August 2020 00:39:04
Eccentricity: 0.0038900
inclination: 97.2246°
perigee height: 453 km
apogee height: 506 km
right ascension of ascending node: 216.3032°
argument of perigee: 61.9038°
revolutions per day: 15.28720394
mean anomaly at epoch: 298.6126°
orbit number at epoch: 42518

The dashed part of the orbit path shows where the satellite is in the earth's shadow,  

DLR